SCP
0 0 0 0 0 0 0 0 0 0 0 0 0 0 0 0 0 0 0 0 0 0 0 0 0 0 0 0 0 0 1 1 1 1 1 1 1 1 1 1 1 1 1
0 0 0 0 0 0 0 0 0 0 0 0 0 0 0 0 0 0 0 0 0 0 0 0 0 0 0 0 0 0 0 1 1 1 1 1 1 1 1 1 1 1 1
0 0 0 0 0 0 0 0 0 0 0 0 0 0 0 0 0 0 0 0 0 0 0 0 0 0 0 0 0 0 0 0 0 1 1 1 1 1 1 1 1 1 1
0 0 0 0 0 0 0 0 0 0 0 0 0 0 0 0 0 0 0 0 0 0 0 0 0 0 0 0 0 0 0 0 0 0 1 1 1 1 1 1 1 1 1
0 0 0 0 0 0 0 0 0 0 0 0 0 0 0 0 0 0 0 0 0 0 0 0 0 0 0 0 0 0 0 0 0 0 0 0 1 1 1 1 1 1 1
0 0 0 0 0 0 0 0 0 0 0 0 0 0 0 0 0 0 0 0 0 0 0 0 0 0 0 0 0 0 0 0 0 0 0 0 0 0 1 1 1 1 1
0 0 0 0 0 0 0 0 0 0 0 0 0 0 0 0 0 0 0 0 0 0 0 0 0 0 0 0 0 0 0 0 0 0 0 0 0 0 0 0 0 1 1
0 0 0 0 0 0 0 0 0 0 0 0 0 0 0 0 0 0 0 0 0 0 0 0 0 0 0 0 0 0 0 0 0 0 0 0 0 0 0 0 0 0 1
0 0 0 0 0 0 0 0 0 0 0 0 0 0 0 0 0 0 0 0 0 0 0 0 0 0 0 0 0 0 0 0 0 0 0 0 0 0 0 0 0 0 0
0 0 0 0 0 0 0 0 0 0 0 0 0 0 0 0 0 0 0 0 0 0 0 0 0 0 0 0 0 0 0 0 0 0 0 0 0 0 0 0 0 0 0
0 0 0 0 0 0 0 0 0 0 0 0 0 0 0 0 0 0 0 0 0 0 0 0 0 0 0 0 0 0 0 0 0 0 0 0 0 0 0 0 0 0 0
0 0 0 0 0 0 0 0 0 0 0 0 0 0 0 0 0 0 0 0 0 0 0 0 0 0 0 0 0 0 0 0 0 0 0 0 0 0 0 0 0 0 0
0 0 0 0 0 0 0 0 0 0 0 0 0 0 0 0 0 0 0 0 0 0 0 0 0 0 0 0 0 0 0 0 0 0 0 0 0 0 0 0 0 0 0
0 0 0 0 0 0 0 0 0 0 0 0 0 0 0 0 0 0 0 0 0 0 0 0 0 0 0 0 0 0 0 0 0 0 0 0 0 0 0 0 0 0 0
0 0 0 0 0 0 0 0 0 0 0 0 0 0 0 0 0 0 0 0 0 0 0 0 0 0 0 0 0 0 0 0 0 0 0 0 0 0 0 0 0 0 0
0 0 0 0 0 0 0 0 0 0 0 0 0 0 0 0 0 0 0 0 0 0 0 0 0 0 0 0 0 0 0 0 0 0 0 0 0 0 0 0 0 0 0
0 0 0 0 0 0 0 0 0 0 0 0 0 0 0 0 0 0 0 0 0 0 0 0 0 0 0 0 0 0 0 0 0 0 0 0 0 0 0 0 0 0 0
0 0 0 0 0 0 0 0 0 0 0 0 0 0 0 0 0 0 0 0 0 0 0 0 0 0 0 0 0 0 0 0 0 0 0 0 0 0 0 0 0 0 0
0 0 0 0 0 0 0 0 0 0 0 0 0 0 0 0 0 0 0 0 0 0 0 0 0 0 0 0 0 0 0 0 0 0 0 0 0 0 0 0 0 0 0
0 0 0 0 0 0 0 0 0 0 0 0 0 0 0 0 0 0 0 0 0 0 0 0 0 0 0 0 0 0 0 0 0 0 0 0 0 0 0 0 0 0 0
0 0 0 0 0 0 0 0 0 0 0 0 0 0 0 0 0 0 0 0 0 0 0 0 0 0 0 0 0 0 0 0 0 0 0 0 0 0 0 0 0 0 0
0 0 0 0 0 0 0 0 0 0 0 0 0 0 0 0 0 0 0 0 0 0 0 0 0 0 0 0 0 0 0 0 0 0 0 0 0 0 0 0 0 0 0
0 0 0 0 0 0 0 0 0 0 0 0 0 0 0 0 0 0 0 0 0 0 0 0 0 0 0 0 0 0 0 0 0 0 0 0 0 0 0 0 0 0 0
0 0 0 0 0 0 0 0 0 0 0 0 0 0 0 0 0 0 0 0 0 0 0 0 0 0 0 0 0 0 0 0 0 0 0 0 0 0 0 0 0 0 0
0 0 0 0 0 0 0 0 0 0 0 0 0 0 0 0 0 0 0 0 0 0 0 0 0 0 0 0 0 0 0 0 0 0 0 0 0 0 0 0 0 0 0
0 0 0 0 0 0 0 0 0 0 0 0 0 0 0 0 0 0 0 0 0 0 0 0 0 0 0 0 0 0 0 0 0 0 0 0 0 0 0 0 0 0 0
Wind_Speed
6 5 5 4 4 4 3 3 3 3 3 2 2 3 2 2 2 1 3 2 3 2 2 3 3 3 3 2 3 3 3 4 5 5 3 3 4 5 3 4 4 5 5
6 6 6 5 5 5 4 3 4 3 3 2 2 3 2 2 2 3 3 3 3 3 3 3 3 2 3 3 3 3 3 4 5 6 5 4 5 5 4 5 4 4 5
7 6 6 5 5 5 4 4 4 3 3 3 3 3 2 2 2 3 3 3 3 3 3 3 3 2 3 2 3 3 3 3 4 5 5 4 4 4 4 5 6 5 6
8 7 7 6 6 5 5 4 4 4 4 4 3 3 3 3 3 3 3 3 3 2 2 3 3 3 3 3 3 3 4 4 4 5 5 4 4 4 4 4 4 4 5
9 8 7 7 6 5 5 5 5 5 5 4 4 4 3 3 3 4 4 4 4 3 3 2 2 3 5 5 4 4 4 4 4 4 4 4 4 3 3 4 5 5 5
10 9 8 7 7 7 6 6 6 6 5 5 5 5 4 3 0 4 7 5 4 4 3 3 2 3 2 3 4 5 6 6 5 5 5 5 5 4 4 4 5 5 4
11 10 8 8 7 7 7 7 7 7 6 6 6 6 6 4 3 6 7 7 6 5 5 4 2 2 3 3 3 5 5 5 6 7 7 6 6 5 5 6 5 6 6
11 10 9 8 8 7 7 8 8 7 6 6 6 6 6 5 5 7 7 9 6 6 5 5 4 4 2 5 5 5 4 4 4 6 6 6 6 6 6 7 7 7 7
11 10 9 9 8 7 8 8 7 6 6 7 6 7 7 6 7 7 8 7 6 6 5 4 4 4 1 3 6 5 5 4 3 6 6 7 8 8 7 6 6 6 6
11 9 8 7 7 7 7 7 6 6 6 6 6 7 7 7 5 7 9 6 6 5 4 4 3 4 2 4 6 5 5 5 5 4 6 8 7 6 6 7 6 6 5
9 8 7 7 6 6 5 4 4 5 5 6 6 6 6 6 5 7 8 7 6 6 4 4 2 4 4 5 7 6 5 7 6 5 5 4 4 4 4 4 4 5 5
9 8 7 6 5 4 4 4 4 4 5 5 6 5 4 4 4 4 6 9 8 7 5 4 1 4 4 4 5 4 6 7 6 4 4 4 4 4 4 4 5 5 6
10 9 7 7 5 4 4 3 3 3 3 3 3 3 3 2 2 4 6 7 7 7 3 2 2 2 4 5 3 3 6 5 4 4 4 4 4 5 5 4 5 5 7
11 10 8 7 6 5 3 2 1 1 1 2 2 2 2 2 2 2 2 3 6 7 4 4 5 3 3 2 2 3 3 3 4 4 4 5 5 4 4 4 5 4 5
11 9 8 7 6 5 4 3 2 4 4 3 2 2 3 2 5 7 5 2 2 1 2 3 3 2 2 1 1 2 2 3 3 3 4 5 5 5 5 4 4 5 5
11 10 8 7 6 6 7 7 9 8 9 9 8 5 4 5 6 6 6 5 4 2 2 2 1 1 1 2 2 3 3 4 4 5 4 4 5 5 5 5 5 5 6
12 10 8 8 7 7 7 7 7 7 7 9 10 9 8 7 6 7 8 9 7 3 2 3 3 3 3 3 3 3 3 4 4 4 4 5 5 5 5 5 5 6 6
12 10 9 8 8 7 7 6 6 6 6 5 7 9 9 9 8 6 3 4 6 5 5 4 4 3 3 3 3 3 3 3 4 4 4 5 5 5 5 5 5 7 7
12 10 9 9 8 7 7 6 6 6 5 5 5 6 6 6 7 6 4 4 5 5 4 4 4 3 3 3 3 3 3 4 4 4 4 5 5 5 5 6 6 7 7
11 13 11 10 9 8 8 7 7 6 6 5 4 4 4 3 3 4 4 4 4 4 4 3 3 3 3 2 3 3 3 3 4 4 5 5 5 5 6 7 7 7 7
12 13 14 11 9 9 8 8 7 7 6 5 5 4 2 2 3 4 3 3 3 3 3 2 2 2 2 2 3 3 4 4 4 5 5 6 6 6 7 7 8 8 8
12 13 12 11 10 9 9 8 8 7 7 7 6 6 3 2 3 3 2 2 2 2 1 1 1 2 2 3 3 4 5 5 5 6 6 7 7 7 8 8 8 9 9
13 14 12 11 10 11 10 9 8 8 7 7 6 6 5 3 3 2 2 1 0 0 1 1 2 2 3 3 4 5 6 6 6 8 8 8 8 8 9 9 11 11 11
14 14 13 12 11 11 10 10 9 8 8 7 6 5 4 4 3 2 2 1 2 2 2 3 4 5 7 6 5 5 5 6 8 8 11 10 11 10 10 10 11 13 12
13 13 13 12 12 11 10 10 9 9 8 7 6 5 4 4 3 3 2 2 3 3 4 5 4 5 7 9 8 7 6 7 7 9 10 10 12 13 12 13 12 13 14
13 13 12 11 11 10 10 9 9 8 7 6 6 5 4 4 3 3 3 3 3 4 4 5 6 7 9 8 8 8 8 8 9 10 10 10 12 12 13 12 15 14 15
Wind_Direction
216 222 230 230 239 242 252 261 269 276 271 282 301 309 322 328 331 339 320 326 313 311 290 295 293 298 283 275 269 261 254 257 268 279 279 280 276 279 275 273 268 263 248
213 220 227 224 228 237 229 236 251 266 282 284 292 294 311 319 330 327 319 316 318 315 309 298 291 288 288 283 275 263 257 256 265 278 281 282 277 283 283 282 277 269 270
206 219 223 221 226 230 227 225 245 250 259 255 251 274 294 303 304 296 298 304 309 308 311 311 307 296 287 280 268 267 265 260 258 268 280 286 278 279 285 278 272 274 272
202 215 221 220 222 227 227 230 238 239 246 257 259 265 278 287 288 290 299 296 296 295 290 294 301 302 301 296 278 271 267 265 262 265 271 272 275 282 280 280 280 272 271
205 214 219 222 219 222 224 227 235 238 240 242 254 259 266 276 298 311 302 294 295 291 276 276 304 336 338 315 307 299 280 269 267 268 269 269 269 273 275 281 281 287 279
206 213 213 218 216 218 226 226 228 233 240 238 246 255 262 261 298 286 289 285 287 285 285 281 252 226 245 264 289 304 304 290 284 270 267 267 273 272 271 271 278 279 275
207 211 209 215 218 223 223 225 228 232 234 237 242 247 253 247 218 247 258 280 283 292 294 290 285 285 270 280 247 235 246 249 267 282 282 282 285 287 282 277 273 274 273
206 209 209 212 218 219 222 227 230 232 230 235 240 245 250 243 216 240 247 254 264 269 270 277 275 269 286 310 297 289 287 271 264 261 277 286 293 297 290 284 283 278 274
205 207 209 211 216 220 223 230 231 233 236 235 234 240 247 240 204 225 244 253 252 257 257 261 273 272 80 294 282 287 290 282 227 234 270 283 294 288 282 274 265 262 270
203 204 206 212 215 219 224 231 228 229 240 246 241 243 247 253 198 213 241 253 253 253 248 240 219 270 312 275 276 286 290 301 301 266 244 241 255 251 240 259 269 270 274
192 193 194 201 210 216 222 224 231 236 246 251 252 246 246 254 218 209 231 255 257 257 250 242 207 182 246 262 276 290 315 312 296 290 291 290 285 283 271 265 266 267 270
175 181 184 189 195 193 202 218 230 239 245 251 255 254 249 239 244 219 225 245 275 265 257 255 189 160 226 251 270 321 314 290 278 282 287 292 299 299 298 295 280 267 263
171 173 176 175 174 181 189 198 216 230 254 264 263 268 270 274 218 212 232 239 244 254 261 33 79 173 230 226 217 280 281 271 283 290 295 302 306 306 306 296 286 278 275
173 172 171 172 165 159 157 173 196 243 258 268 289 299 306 301 317 313 257 222 209 220 225 165 169 188 241 291 257 238 269 314 314 303 307 309 307 302 296 297 295 296 287
172 171 169 165 159 151 128 78 78 59 27 358 358 344 334 338 11 351 318 305 279 225 190 178 185 186 209 244 299 333 338 332 317 318 316 314 315 313 311 311 301 297 291
173 171 166 162 157 151 138 113 66 75 74 61 45 21 57 42 25 34 45 47 54 78 165 161 137 93 36 11 2 1 8 4 352 343 337 334 331 328 323 324 318 309 306
175 169 165 165 162 162 159 154 142 118 94 74 63 55 53 53 58 61 68 71 66 75 95 83 73 61 50 37 28 20 15 8 356 354 354 349 341 334 329 327 327 326 321
173 164 163 164 165 166 165 165 162 160 152 127 91 71 67 66 62 56 57 97 79 68 68 70 66 56 48 39 31 21 13 7 3 1 359 355 350 343 341 339 336 336 326
168 164 165 161 162 160 159 159 157 156 149 141 135 116 102 101 87 61 50 76 79 77 74 70 65 57 48 39 29 19 12 3 360 354 356 350 346 340 339 336 331 332 324
165 158 158 159 159 159 160 161 159 157 154 151 144 133 140 143 108 91 79 75 79 78 75 72 62 50 38 27 14 359 352 352 350 347 346 341 338 334 332 330 329 326 323
160 159 162 162 163 162 162 162 160 159 156 149 134 101 44 121 106 98 91 86 80 77 70 59 53 34 10 351 341 335 333 334 336 334 332 330 328 325 321 319 318 318 317
162 161 167 165 161 162 162 160 159 158 156 151 143 141 167 167 130 123 115 107 96 81 59 18 3 358 341 331 326 323 322 322 325 325 322 319 316 313 312 311 313 314 313
163 161 163 161 160 155 161 161 161 161 161 161 159 160 168 165 157 156 153 147 151 264 300 301 303 306 310 313 313 311 311 318 321 319 314 309 307 306 305 305 305 305 305
164 162 161 160 160 163 166 164 165 166 167 167 169 172 174 177 185 191 212 231 254 268 279 286 292 297 301 303 302 302 314 329 324 313 309 304 301 299 298 298 298 297 298
164 162 162 162 163 165 166 166 168 170 173 177 179 182 187 194 204 216 236 252 268 277 287 290 290 295 302 304 305 315 350 345 323 313 307 298 295 294 293 293 293 294 293
163 162 162 162 163 165 167 169 172 174 177 180 184 189 195 205 219 233 248 262 275 283 289 291 298 304 306 304 318 336 331 317 310 305 302 297 293 290 292 291 292 292 291